[[{"header":{"parameterUnit":"m.s-1","parameterCategory":1,"la1":30.2991,"la2":30.254,"lo1":-89.0895,"lo2":-89.0444,"dy":0.0017,"dx":0.0017,"nx":28,"ny":28,"refTime":"2023-08-14T09:00:00:Z","depth":0,"parameterNumber":2,"parameterNumberName":"U-component_of_WINDS"},"data":[0,0,0,0,0,0,0,0,0,0,0,0,0,0,0,0,0,0,0,0,0,0,0,0,0,0,0,0,0,0,0,0,0,0,0,0,0,0,0,0,0,0,0,0,0,0,0,0,0,0,0,0,0,0,0,0,0,0,4.3502,4.3503,0,4.3596,4.3597,4.3598,4.3569,4.3567,4.3565,4.3563,4.3661,4.3665,4.3669,0,0,0,0,0,0,0,0,0,0,0,0,0,4.3302,4.3306,4.3502,4.3503,4.3504,4.3595,4.3597,4.3598,4.3569,4.3567,4.3564,4.3562,4.3659,4.3664,4.367,0,0,0,0,0,0,0,0,0,0,0,0,0,4.3392,4.3307,4.3502,4.3501,4.3502,4.3595,4.3597,4.3598,4.3569,4.3566,4.3563,4.3561,4.3657,4.3664,4.367,4.3771,0,0,4.3691,4.3694,0,0,0,0,0,0,0,0,4.3387,4.3399,4.35,4.3501,4.3502,4.3567,4.3562,4.3656,4.357,4.3544,4.3563,4.3559,4.3632,4.3641,4.3665,4.3776,4.378,4.3691,4.3696,4.3698,4.37,0,0,0,0,0,0,0,4.3381,4.3395,4.3539,4.3501,4.3503,4.3497,4.3506,4.358,4.3604,4.3546,4.3544,4.3555,4.3632,4.3658,4.3667,4.3781,4.3691,4.3697,4.3701,4.3704,4.3983,4.3986,0,0,0,0,0,0,4.3373,4.339,4.3536,4.3542,4.3436,4.3503,4.3513,4.3549,4.3603,4.3608,4.3558,4.3554,4.3648,4.3659,4.367,4.3794,4.3698,4.3705,4.3708,4.398,4.3984,4.3987,0,0,0,0,0,0,4.3369,4.3386,4.3532,4.3466,4.3484,4.351,4.355,4.3553,4.3579,4.3612,4.3616,4.358,4.3647,4.3661,4.3747,4.3797,4.3708,4.3714,4.3975,4.3981,4.3985,4.404,0,0,0,0,0,0,4.3363,4.3385,4.3423,4.3467,4.3487,4.3606,4.3553,4.3557,4.359,4.3586,4.3634,4.3639,4.3645,4.3737,4.3753,4.3804,4.3719,4.3971,4.3978,4.3984,4.4034,4.4046,4.4057,0,0,0,0,0,4.3356,4.3434,4.3425,4.3442,4.3535,4.3609,4.3621,4.3627,4.3594,4.3633,4.3655,4.3637,4.3788,4.3746,4.3764,4.3818,4.3968,4.3976,4.3983,4.4029,4.4044,4.4057,0,0,0,0,0,0,4.3395,4.344,4.343,4.3524,4.3563,4.3604,4.3653,4.3642,4.3692,4.3685,4.3691,4.3702,4.3791,4.3813,4.3765,4.392,4.3874,4.3885,4.3902,4.3917,4.3928,4.3921,4.3724,0,0,0,0,0,4.3415,4.3471,4.3507,4.3587,4.3607,4.3627,4.3659,4.366,4.3701,4.3718,4.3745,4.3787,4.3844,4.3881,4.3935,4.4037,4.4048,4.4083,4.4094,4.4104,4.4114,4.4172,4.4189,4.4012,4.4012,4.4012,0,0,4.3456,4.3487,4.3522,4.3595,4.3626,4.3685,4.3641,4.3705,4.375,4.3728,4.3811,4.3833,4.388,4.3975,4.4018,4.3996,4.4165,4.4114,4.4121,4.4126,4.4182,4.4198,4.4213,4.4018,4.4017,4.4016,0,0,4.3561,4.359,4.366,4.3692,4.3739,4.3752,4.3769,4.3812,4.3826,4.391,4.3896,4.3949,4.4047,4.4081,4.4112,4.4233,4.422,4.425,4.4311,4.4368,4.4381,4.4394,4.4439,4.4455,4.426,4.4261,4.4261,0,4.3606,4.3694,4.3698,4.3764,4.3798,4.3781,4.3854,4.3885,4.3947,4.3971,4.3946,4.4069,4.4099,4.4203,4.4233,4.4258,4.4279,4.4245,4.4379,4.4391,4.4403,4.4446,4.4463,4.4264,4.4264,4.4263,4.4263,0,4.3749,4.381,4.3862,4.3923,4.3962,4.4031,4.4047,4.4087,4.4085,4.4101,4.4188,4.4224,4.4286,4.4311,4.4309,4.4415,4.4401,4.4377,4.4331,4.4423,4.4464,4.4481,4.4269,4.4268,4.4267,4.4266,0,0,4.3881,4.3944,4.3963,4.3992,4.4043,4.4091,4.4161,4.4221,4.4256,4.43,4.436,4.4444,4.4423,4.4458,4.446,4.451,4.4606,4.448,4.4482,4.4504,4.4728,4.4747,4.4766,4.4598,4.4601,4.4603,4.4725,0,4.3992,4.4113,4.4119,4.423,4.4288,4.4274,4.4335,4.4374,4.4392,4.4445,4.4465,4.4525,4.4492,4.4513,4.4561,4.4584,4.4652,4.4575,4.4655,4.4658,4.4645,4.4787,4.4806,4.4919,4.4741,4.4744,4.4745,0,4.4137,4.4187,4.4303,4.4348,4.4373,4.4427,4.4485,4.4535,4.458,4.459,4.4629,4.4626,4.4699,4.465,4.4752,4.47,4.4733,4.475,4.4754,4.4763,4.4708,4.4801,4.4955,4.4973,4.477,4.4768,4.4767,0,4.4225,4.432,4.4402,4.4427,4.4481,4.452,4.4545,4.4587,4.4624,4.4674,4.4699,4.4757,4.4789,4.4836,4.4849,4.4811,4.4951,4.4903,4.4963,4.4963,4.4994,4.4992,4.5157,4.5013,4.5012,4.5012,4.5012,0,4.4349,4.4421,4.4443,4.4494,4.4575,4.4582,4.4663,4.4686,4.4723,4.478,4.4771,4.4824,4.4837,4.4894,4.4904,4.4989,4.5003,4.5014,4.5016,4.5016,4.5015,4.5038,4.5031,4.5017,4.5016,4.5015,4.5014,0,4.446,4.4477,4.4567,4.4611,4.4624,4.4683,4.4721,4.4771,4.4788,4.486,4.4877,4.4904,4.4971,4.4988,4.5067,4.5074,4.5174,4.5168,4.5159,4.5159,4.5219,4.5214,4.5406,4.5433,4.527,4.5271,4.5272,0,4.4539,4.4594,4.4645,4.4682,4.4709,4.4768,4.4806,4.4816,4.4856,4.4913,4.4957,4.5021,4.5074,4.5181,4.5209,4.527,4.5266,4.5329,4.5275,4.5274,4.5269,4.5267,4.5273,4.534,4.5342,4.5343,4.5344,0,4.4678,4.4684,4.4738,4.4797,4.4842,4.4888,4.4933,4.4964,4.498,4.5026,4.5094,4.5135,4.5216,4.5281,4.5343,4.537,4.5362,4.5361,4.5379,4.5379,4.5372,4.5379,4.5189,4.5357,4.5356,4.5355,4.5354,4.5354,4.4777,4.4826,4.487,4.4932,4.4967,4.5009,4.5059,4.5082,4.5138,4.5205,4.5208,4.5282,4.5328,4.541,4.544,4.55,4.5481,4.5505,4.5512,4.5518,4.5525,4.5362,4.5511,4.551,4.551,4.551,4.551,0,4.4917,4.4945,4.5001,4.5064,4.5113,4.51,4.5149,4.5191,4.5256,4.5299,4.5351,4.543,4.5494,4.5527,4.5592,4.5633,4.563,4.5649,4.5647,4.5654,4.5537,4.5516,4.565,4.565,4.565,4.565,4.565,4.565,4.4996,4.508,4.5091,4.5193,4.5221,4.5293,4.5323,4.5362,4.5397,4.5485,4.5538,4.5559,4.5599,4.5666,4.5725,4.5733,4.5758,4.578,4.5786,4.5676,4.5662,4.5648,4.5629,4.5785,4.5785,4.5899,4.59,4.5901]},{"header":{"parameterUnit":"m.s-1","parameterCategory":1,"la1":30.2991,"la2":30.254,"lo1":-89.0895,"lo2":-89.0444,"dy":0.0017,"dx":0.0017,"nx":28,"ny":28,"refTime":"2023-08-14T09:00:00:Z","depth":0,"parameterNumber":3,"parameterNumberName":"V-component_of_WINDS"},"data":[0,0,0,0,0,0,0,0,0,0,0,0,0,0,0,0,0,0,0,0,0,0,0,0,0,0,0,0,0,0,0,0,0,0,0,0,0,0,0,0,0,0,0,0,0,0,0,0,0,0,0,0,0,0,0,0,0,0,-0.7438,-0.7438,0,-0.7432,-0.7432,-0.7432,-0.7427,-0.7427,-0.7427,-0.7427,-0.7419,-0.7419,-0.7419,0,0,0,0,0,0,0,0,0,0,0,0,0,-0.7446,-0.7446,-0.7438,-0.7438,-0.7438,-0.7432,-0.7432,-0.7432,-0.7427,-0.7427,-0.7427,-0.7427,-0.7419,-0.7419,-0.7419,0,0,0,0,0,0,0,0,0,0,0,0,0,-0.7442,-0.7446,-0.7438,-0.7435,-0.7435,-0.7432,-0.7432,-0.7432,-0.7427,-0.7427,-0.7427,-0.7427,-0.742,-0.7419,-0.7419,-0.7419,0,0,-0.7418,-0.7418,0,0,0,0,0,0,0,0,-0.7442,-0.7441,-0.7435,-0.7435,-0.7435,-0.743,-0.7432,-0.7427,-0.7427,-0.743,-0.7427,-0.7427,-0.7423,-0.7422,-0.7421,-0.7418,-0.7418,-0.7418,-0.7418,-0.7418,-0.7418,0,0,0,0,0,0,0,-0.7442,-0.7442,-0.7436,-0.7435,-0.7435,-0.7434,-0.7433,-0.7431,-0.7427,-0.743,-0.7429,-0.7429,-0.7423,-0.7422,-0.7421,-0.7418,-0.7418,-0.7418,-0.7418,-0.7418,-0.7416,-0.7416,0,0,0,0,0,0,-0.7443,-0.7442,-0.7436,-0.7435,-0.7438,-0.7434,-0.7433,-0.7432,-0.7427,-0.7426,-0.7429,-0.7428,-0.7422,-0.7421,-0.7421,-0.7421,-0.7418,-0.7418,-0.7418,-0.7416,-0.7416,-0.7416,0,0,0,0,0,0,-0.7443,-0.7443,-0.7436,-0.7439,-0.7438,-0.7434,-0.7432,-0.7432,-0.743,-0.7426,-0.7425,-0.7428,-0.7422,-0.7421,-0.742,-0.7421,-0.7418,-0.7417,-0.7416,-0.7416,-0.7416,-0.7421,0,0,0,0,0,0,-0.7444,-0.7443,-0.7442,-0.7439,-0.7438,-0.7435,-0.7432,-0.7431,-0.743,-0.743,-0.7425,-0.7425,-0.7422,-0.742,-0.7419,-0.742,-0.7417,-0.7415,-0.7416,-0.7416,-0.742,-0.7421,-0.7422,0,0,0,0,0,-0.7444,-0.7443,-0.7442,-0.7442,-0.7437,-0.7435,-0.7434,-0.7431,-0.743,-0.743,-0.7428,-0.7425,-0.7421,-0.742,-0.7419,-0.742,-0.7415,-0.7416,-0.7416,-0.742,-0.7421,-0.7422,0,0,0,0,0,0,-0.7447,-0.7443,-0.7442,-0.744,-0.7438,-0.7434,-0.7434,-0.7432,-0.743,-0.7429,-0.7426,-0.7425,-0.7424,-0.7422,-0.7421,-0.742,-0.7418,-0.7418,-0.7421,-0.7422,-0.7423,-0.7423,-0.7417,0,0,0,0,0,-0.7447,-0.7446,-0.7443,-0.7441,-0.7441,-0.7437,-0.7436,-0.7434,-0.7432,-0.7431,-0.7428,-0.7426,-0.7424,-0.7423,-0.7421,-0.742,-0.742,-0.7421,-0.7421,-0.7422,-0.7422,-0.7422,-0.7423,-0.7417,-0.7417,-0.7417,0,0,-0.7448,-0.7446,-0.7445,-0.7442,-0.744,-0.7439,-0.7437,-0.7435,-0.7435,-0.743,-0.7429,-0.7427,-0.7424,-0.7424,-0.7423,-0.7422,-0.7424,-0.7422,-0.7422,-0.7422,-0.7423,-0.7423,-0.7424,-0.7417,-0.7417,-0.7417,0,0,-0.7449,-0.7447,-0.7446,-0.7445,-0.7443,-0.7441,-0.7441,-0.7438,-0.7437,-0.7435,-0.7433,-0.7432,-0.7429,-0.7427,-0.7426,-0.7429,-0.7426,-0.7428,-0.7431,-0.7432,-0.7432,-0.7433,-0.7434,-0.7435,-0.7428,-0.7428,-0.7428,0,-0.745,-0.7449,-0.7446,-0.7446,-0.7445,-0.7442,-0.7442,-0.744,-0.7437,-0.7437,-0.7436,-0.7433,-0.743,-0.743,-0.7431,-0.743,-0.743,-0.7428,-0.7432,-0.7433,-0.7433,-0.7435,-0.7435,-0.7428,-0.7428,-0.7428,-0.7428,0,-0.7451,-0.745,-0.745,-0.7448,-0.7447,-0.7446,-0.7444,-0.7444,-0.7442,-0.7441,-0.744,-0.7438,-0.7436,-0.7436,-0.7434,-0.7435,-0.7435,-0.7433,-0.7431,-0.7434,-0.7436,-0.7436,-0.7429,-0.7429,-0.7429,-0.7429,0,0,-0.7452,-0.745,-0.745,-0.745,-0.7448,-0.7447,-0.7447,-0.7446,-0.7446,-0.7444,-0.7445,-0.7443,-0.7442,-0.7441,-0.7439,-0.7439,-0.7443,-0.7437,-0.7437,-0.7439,-0.7446,-0.7447,-0.7448,-0.7442,-0.7442,-0.7442,-0.7446,0,-0.7453,-0.7453,-0.7452,-0.7452,-0.7452,-0.745,-0.745,-0.7449,-0.7448,-0.7448,-0.7446,-0.7446,-0.7444,-0.7443,-0.7444,-0.7442,-0.7444,-0.7442,-0.7442,-0.7442,-0.7443,-0.7449,-0.745,-0.7454,-0.7447,-0.7447,-0.7447,0,-0.7454,-0.7454,-0.7454,-0.7454,-0.7454,-0.7454,-0.7453,-0.7453,-0.7452,-0.7452,-0.7451,-0.7449,-0.745,-0.7448,-0.7449,-0.7447,-0.7447,-0.7447,-0.7447,-0.7447,-0.7445,-0.7449,-0.7456,-0.7456,-0.7448,-0.7447,-0.7447,0,-0.7456,-0.7456,-0.7456,-0.7456,-0.7455,-0.7456,-0.7455,-0.7454,-0.7454,-0.7454,-0.7454,-0.7454,-0.7454,-0.7454,-0.7452,-0.7451,-0.7454,-0.7451,-0.7454,-0.7454,-0.7454,-0.7454,-0.7461,-0.7454,-0.7454,-0.7454,-0.7454,0,-0.7458,-0.7458,-0.7458,-0.7458,-0.7459,-0.7458,-0.7459,-0.7458,-0.7458,-0.7458,-0.7457,-0.7457,-0.7455,-0.7456,-0.7455,-0.7456,-0.7456,-0.7456,-0.7456,-0.7456,-0.7456,-0.7456,-0.7456,-0.7454,-0.7454,-0.7454,-0.7454,0,-0.746,-0.7459,-0.746,-0.746,-0.746,-0.7461,-0.746,-0.7461,-0.7461,-0.7461,-0.7462,-0.7461,-0.7461,-0.746,-0.746,-0.746,-0.7462,-0.7461,-0.7463,-0.7463,-0.7465,-0.7465,-0.7473,-0.7474,-0.7465,-0.7465,-0.7465,0,-0.7461,-0.7461,-0.7462,-0.7462,-0.7462,-0.7463,-0.7464,-0.7463,-0.7463,-0.7464,-0.7464,-0.7465,-0.7466,-0.7467,-0.7467,-0.7467,-0.7467,-0.7469,-0.7467,-0.7468,-0.7468,-0.7468,-0.7468,-0.747,-0.747,-0.747,-0.747,0,-0.7463,-0.7463,-0.7464,-0.7465,-0.7466,-0.7466,-0.7467,-0.7468,-0.7467,-0.7468,-0.7469,-0.747,-0.7471,-0.7472,-0.7473,-0.7473,-0.7472,-0.7471,-0.7472,-0.7472,-0.7473,-0.7474,-0.7465,-0.7471,-0.7471,-0.7471,-0.747,-0.747,-0.7465,-0.7466,-0.7467,-0.7468,-0.7469,-0.747,-0.7471,-0.7471,-0.7472,-0.7474,-0.7473,-0.7475,-0.7476,-0.7477,-0.7477,-0.7479,-0.7478,-0.7478,-0.7479,-0.7479,-0.748,-0.7473,-0.7479,-0.7479,-0.7479,-0.7479,-0.7479,0,-0.7468,-0.7469,-0.747,-0.7471,-0.7473,-0.7472,-0.7473,-0.7474,-0.7476,-0.7477,-0.7478,-0.748,-0.7482,-0.7482,-0.7484,-0.7485,-0.7485,-0.7486,-0.7486,-0.7486,-0.748,-0.748,-0.7486,-0.7486,-0.7486,-0.7486,-0.7486,-0.7486,-0.7469,-0.7471,-0.7472,-0.7475,-0.7476,-0.7478,-0.7479,-0.748,-0.7481,-0.7484,-0.7485,-0.7486,-0.7487,-0.7489,-0.7491,-0.7491,-0.7492,-0.7493,-0.7493,-0.7487,-0.7486,-0.7486,-0.7485,-0.7493,-0.7493,-0.7499,-0.7499,-0.7499]}]]